Temp
16 16 16 16 16 15 15 15 15 15 15 15 15 14 14 14 14 14 14 14 14 14 14 14 14 13 13 13 13 13 12 12 12 12 12 11 11 11 11 11 11 11 11 11 10 10 10 10 10 10 10 10 10 10 10 10 10 10 10 10 10 11 11 11 11 10 10 10 9
16 16 15 15 15 15 15 15 15 15 14 14 14 14 14 14 14 14 14 14 13 13 13 13 13 13 13 13 12 12 12 11 11 11 11 11 11 11 11 11 10 10 10 10 10 10 10 10 10 10 10 10 10 10 10 10 10 10 10 10 10 10 10 10 10 10 9 9 8
15 15 15 15 15 15 15 14 14 14 14 14 14 14 14 14 13 13 13 13 13 13 12 12 12 12 12 12 12 11 11 11 11 11 11 11 11 10 10 10 10 10 10 10 10 10 10 9 9 9 9 9 9 9 9 9 9 9 10 10 10 10 10 9 9 9 8 8 8
15 15 15 15 15 14 14 14 14 14 14 14 14 14 13 13 13 13 13 13 12 12 12 12 11 11 11 11 11 11 11 11 11 10 10 10 10 10 10 10 10 10 10 9 9 9 9 9 9 9 8 8 8 8 8 8 8 9 9 9 9 9 9 8 7 7 7 7 7
15 15 15 14 14 14 14 14 14 14 14 14 13 13 13 13 13 13 13 12 12 12 11 11 11 11 11 11 10 10 10 10 10 10 10 10 10 10 10 10 9 9 9 9 9 9 9 9 9 8 8 8 8 8 8 8 8 8 8 8 8 8 7 7 6 6 6 6 6
15 15 14 14 14 14 14 14 14 14 14 13 13 13 13 13 13 12 12 12 12 11 11 11 11 10 10 10 10 10 10 10 10 10 10 9 9 9 9 9 9 9 9 9 9 8 9 8 8 8 8 8 8 8 8 8 8 8 8 8 8 7 7 6 6 6 6 6 5
14 14 14 14 14 14 14 14 14 14 13 13 13 13 13 12 12 12 12 11 11 11 11 10 10 10 10 10 10 10 9 9 9 9 9 9 9 9 9 8 8 8 8 8 8 8 8 8 8 8 8 8 8 7 7 7 7 7 7 7 7 6 6 6 6 5 5 5 5
14 14 14 14 14 14 14 13 13 13 13 13 13 12 12 12 11 11 11 11 10 10 10 10 10 9 9 9 9 9 9 9 9 9 9 8 8 8 8 8 8 8 8 8 8 8 8 8 8 8 7 7 6 6 6 6 6 6 6 6 6 6 5 5 5 4 4 4 4
14 14 14 14 14 14 13 13 13 13 13 12 12 11 11 11 11 10 10 10 10 10 9 9 9 9 9 9 9 9 8 8 8 8 8 8 7 7 7 7 7 7 7 7 7 7 7 7 7 7 6 6 5 5 5 6 6 5 5 5 5 4 4 4 4 4 3 3 3
14 14 14 14 14 13 13 13 12 12 12 11 11 11 11 10 10 10 9 9 9 9 9 9 9 9 8 8 8 8 8 7 7 7 7 7 7 6 6 6 6 6 6 6 6 6 6 6 6 5 5 5 5 5 5 5 5 5 4 4 4 3 3 3 3 3 3 3 2
14 14 14 14 13 13 13 12 12 11 11 11 10 10 10 10 9 9 9 9 8 8 8 8 8 8 8 7 7 7 7 7 6 6 6 6 6 6 5 5 5 5 5 5 5 6 5 5 4 4 4 4 4 4 4 4 4 3 3 3 3 3 3 2 2 2 2 2 2
14 14 14 13 13 12 12 12 11 11 10 10 10 9 9 9 8 8 8 8 8 8 8 8 7 7 7 7 6 6 6 6 6 6 5 5 5 5 4 4 4 4 4 4 4 4 4 3 3 3 3 3 3 3 3 3 2 2 2 2 2 2 2 2 2 2 2 2 1
14 13 13 13 12 12 11 11 10 10 9 9 9 8 8 8 7 7 7 7 7 7 7 7 7 6 6 6 6 5 5 5 5 5 5 4 4 4 3 3 3 3 3 3 3 3 3 2 2 2 2 2 2 2 1 1 1 1 1 1 1 1 1 1 1 1 1 1 1
13 13 12 12 11 11 11 10 9 9 8 8 8 7 7 7 7 7 7 6 6 6 6 6 6 5 5 5 5 5 5 4 4 4 4 4 3 3 3 3 2 2 2 2 2 2 1 1 1 1 1 1 1 1 0 0 0 0 0 0 0 -0 -0 -0 -0 -0 -0 -0 -0
13 12 12 11 11 10 10 9 8 8 8 7 7 7 6 6 6 6 6 6 5 5 5 5 5 4 4 4 4 4 4 4 3 3 3 3 3 3 2 2 2 2 2 2 2 1 1 1 0 0 0 0 -0 -0 -0 -0 -1 -1 -1 -1 -1 -1 -1 -1 -1 -1 -1 -1 -1
12 11 11 10 10 9 9 8 8 7 7 6 6 6 6 6 6 5 5 5 5 4 4 4 4 4 3 3 3 3 3 3 3 3 2 2 2 2 2 2 2 2 2 2 1 1 1 0 0 0 -0 -0 -0 -0 -1 -1 -1 -1 -1 -1 -1 -1 -1 -1 -1 -1 -1 -1 -1
11 11 10 9 9 8 8 7 7 7 6 6 6 5 5 5 5 5 4 4 4 4 3 3 3 3 3 3 3 3 3 3 2 2 2 2 2 2 2 1 1 1 1 1 1 1 1 0 0 0 0 -0 -0 -0 -0 -1 -1 -1 -1 -1 -1 -1 -1 -1 -1 -1 -1 -1 -1
10 10 9 9 8 8 7 7 6 6 6 6 5 5 5 5 4 4 4 4 3 3 3 3 3 3 3 3 3 3 2 2 2 2 2 2 1 1 1 1 1 1 1 1 1 1 1 0 0 0 0 0 0 -0 -0 -0 -1 -1 -1 -1 -1 -1 -1 -1 -1 -1 -1 -1 -1
9 9 8 8 7 7 7 6 6 6 5 5 5 5 4 4 4 4 3 3 3 3 3 3 3 3 3 2 2 2 2 2 2 2 1 1 1 1 1 1 1 1 1 1 1 1 1 1 1 0 0 0 0 0 0 -0 -0 -1 -1 -1 -1 -1 -1 -1 -1 -1 -1 -1 -1
8 8 8 7 7 7 6 6 6 5 5 5 5 4 4 4 3 3 3 3 3 3 3 3 2 2 2 2 2 2 2 2 1 1 1 1 1 1 1 1 1 0 0 0 0 0 0 0 0 0 0 0 0 0 -0 -0 -0 -1 -1 -1 -1 -1 -1 -1 -1 -1 -1 -1 -1
8 8 7 7 7 6 6 5 5 5 5 5 4 4 4 3 3 3 3 3 3 3 2 2 2 2 2 2 1 1 1 1 1 1 1 1 1 1 0 0 0 0 0 0 0 0 0 0 0 0 -0 -0 -0 -0 -0 -1 -1 -1 -1 -1 -1 -1 -1 -1 -1 -1 -1 -1 -1
8 7 7 7 6 6 5 5 5 5 5 4 4 4 3 3 3 3 3 3 3 2 2 2 2 1 1 1 1 1 1 1 1 1 1 1 1 0 0 0 0 0 0 0 0 0 0 0 -0 -0 -0 -0 -0 -1 -1 -1 -1 -1 -1 -1 -1 -1 -1 -1 -1 -1 -1 -1 -1
7 7 6 6 6 5 5 5 5 4 4 4 4 3 3 3 3 3 3 2 2 2 2 2 1 1 1 1 1 1 1 1 1 1 1 1 1 1 1 0 0 0 0 0 0 0 0 -0 -0 -0 -1 -1 -1 -1 -1 -1 -1 -1 -1 -1 -1 -1 -1 -1 -1 -1 -1 -1 -1
7 6 6 5 5 5 5 4 4 4 4 4 3 3 3 3 3 2 2 2 2 2 2 2 1 1 1 1 1 1 1 1 1 1 1 1 1 1 1 1 1 1 1 1 0 0 -0 -0 -1 -1 -1 -1 -1 -1 -1 -1 -1 -1 -1 -1 -1 -1 -1 -1 -1 -1 -1 -1 -1
6 6 5 5 5 5 4 4 4 4 3 3 3 3 3 3 2 2 2 2 2 2 2 2 1 1 1 1 1 1 1 1 1 1 1 1 1 1 1 1 1 1 1 1 1 0 -0 -1 -1 -1 -1 -1 -1 -1 -1 -1 -1 -1 -1 -1 -2 -2 -2 -2 -1 -1 -1 -1 -1
6 5 5 5 4 4 4 4 3 3 3 3 3 3 2 2 2 2 2 2 2 2 2 2 2 1 1 1 1 1 1 1 1 1 1 1 1 1 1 1 1 1 1 1 1 0 -0 -1 -1 -1 -1 -1 -1 -1 -1 -1 -1 -1 -1 -1 -2 -2 -2 -2 -2 -2 -1 -1 -1
5 5 5 4 4 4 4 3 3 3 3 3 2 2 2 2 2 2 2 2 2 2 2 2 2 2 1 1 1 1 1 1 1 1 1 1 1 1 1 1 1 1 1 1 0 0 0 -0 -1 -1 -1 -1 -1 -1 -1 -1 -1 -1 -2 -2 -2 -2 -2 -2 -2 -2 -2 -2 -1
5 4 4 4 4 4 3 3 3 3 2 2 2 2 2 2 2 2 2 2 2 2 2 2 2 2 1 1 1 1 1 1 1 1 1 1 1 1 1 1 1 0 0 0 0 0 -0 -0 -0 -1 -1 -1 -1 -1 -1 -1 -1 -2 -2 -2 -2 -2 -2 -2 -2 -2 -2 -2 -2
4 4 4 4 4 3 3 3 3 2 2 2 2 2 2 2 2 2 2 2 2 2 2 2 2 2 2 2 2 2 2 1 1 1 1 1 1 1 1 1 1 0 0 0 0 -0 -0 -0 -1 -1 -1 -1 -1 -1 -1 -1 -1 -2 -2 -2 -2 -2 -2 -2 -2 -2 -2 -2 -2
4 4 4 4 3 3 3 2 2 2 2 2 2 2 2 2 2 2 2 2 2 2 2 2 2 2 2 2 2 2 2 2 2 1 1 1 1 1 1 1 1 0 0 0 0 -0 -0 -1 -1 -1 -1 -1 -1 -1 -1 -1 -2 -2 -2 -2 -2 -2 -3 -3 -3 -3 -3 -3 -3
4 4 3 3 3 3 2 2 2 2 2 2 2 2 2 2 2 2 2 2 2 2 2 2 2 2 2 2 2 2 2 2 2 2 1 1 1 1 1 1 1 0 0 0 0 -0 -0 -1 -1 -1 -1 -1 -1 -1 -1 -2 -2 -2 -2 -2 -3 -3 -3 -3 -3 -3 -3 -3 -3
4 3 3 3 3 2 2 2 2 2 2 2 2 2 2 2 2 2 2 2 2 2 2 2 2 2 2 2 2 2 2 2 2 2 2 1 1 1 1 1 1 0 0 0 0 -0 -0 -1 -1 -1 -1 -2 -2 -2 -2 -2 -2 -2 -3 -3 -3 -3 -3 -3 -3 -3 -3 -3 -4
3 3 3 3 2 2 2 2 2 2 2 2 2 2 2 3 3 3 3 2 2 2 2 2 2 2 2 2 2 2 2 2 2 2 2 1 1 1 1 1 0 0 0 0 -0 -0 -0 -1 -1 -1 -2 -2 -2 -3 -3 -3 -3 -3 -3 -3 -3 -3 -3 -3 -3 -3 -4 -4 -4
3 3 3 2 2 2 2 2 2 2 2 2 3 3 3 3 3 3 3 3 3 3 3 2 2 2 2 2 2 2 2 2 2 2 1 1 1 1 1 1 0 0 0 -0 -0 -0 -1 -1 -1 -1 -2 -2 -3 -3 -3 -3 -3 -3 -3 -3 -4 -4 -4 -4 -4 -4 -4 -4 -4
3 3 3 3 2 2 2 2 2 2 3 3 3 3 3 3 3 3 3 3 3 3 2 2 2 2 2 2 2 2 2 1 1 1 1 1 1 1 1 1 0 0 -0 -0 -0 -1 -1 -1 -1 -2 -2 -2 -3 -3 -3 -3 -3 -4 -4 -4 -4 -4 -4 -4 -4 -4 -4 -5 -5
3 3 3 3 3 2 2 2 3 3 3 3 3 3 3 3 3 3 3 3 3 2 2 2 2 2 2 2 2 2 1 1 1 1 1 1 1 1 0 0 0 -0 -0 -1 -1 -1 -1 -1 -2 -2 -2 -3 -3 -3 -3 -3 -4 -4 -4 -4 -4 -4 -4 -4 -4 -5 -5 -5 -5
3 3 3 3 3 3 3 3 3 3 3 3 3 3 3 3 3 3 3 3 2 2 2 2 2 2 2 2 2 1 1 1 1 1 1 0 0 0 -0 -0 -0 -1 -1 -1 -1 -1 -2 -2 -3 -3 -3 -3 -3 -3 -4 -4 -4 -4 -4 -4 -4 -4 -5 -5 -5 -5 -5 -5 -5
3 3 3 3 3 3 3 3 3 3 3 3 3 3 3 3 3 3 3 2 2 2 2 2 2 2 2 1 1 1 1 1 0 0 0 -0 -0 -1 -1 -1 -1 -1 -2 -2 -2 -2 -2 -3 -3 -3 -3 -4 -4 -4 -4 -4 -4 -4 -4 -5 -5 -5 -5 -5 -5 -5 -5 -5 -6
3 3 3 3 3 3 3 3 3 3 3 3 3 3 3 3 3 3 2 2 2 2 2 2 2 1 1 1 1 1 1 0 -0 -0 -0 -1 -1 -1 -2 -2 -2 -2 -2 -2 -2 -3 -3 -3 -3 -3 -4 -4 -4 -4 -4 -5 -5 -5 -5 -5 -5 -5 -5 -5 -6 -6 -6 -6 -6
3 3 3 3 3 3 3 3 3 3 3 3 3 3 3 3 3 2 2 2 2 2 2 1 1 1 1 1 1 0 0 -0 -0 -1 -1 -1 -1 -1 -2 -2 -2 -2 -3 -3 -3 -3 -3 -3 -3 -4 -4 -4 -4 -5 -5 -5 -5 -5 -5 -6 -6 -6 -6 -6 -6 -6 -6 -6 -6
3 3 3 3 3 3 3 3 3 3 3 3 3 3 3 3 2 2 2 2 2 2 1 1 1 1 1 1 0 0 -0 -1 -1 -1 -1 -1 -1 -2 -2 -2 -2 -3 -3 -3 -3 -3 -3 -3 -4 -4 -4 -4 -5 -5 -5 -5 -6 -6 -6 -6 -6 -6 -6 -6 -6 -6 -6 -6 -6
Height
819 819 819 819 819 819 818 818 818 818 817 817 816 816 815 814 813 813 812 812 811 810 809 808 807 806 805 805 804 803 803 802 802 802 801 800 800 800 799 799 798 798 797 797 796 795 794 793 793 792 791 791 790 789 788 788 786 785 784 783 782 782 781 780 779 779 778 778 778
819 819 819 819 819 819 818 818 818 817 817 816 816 815 814 814 813 813 812 811 810 809 808 808 807 806 805 804 804 803 803 802 802 801 801 800 800 800 799 798 798 797 797 796 795 794 793 793 792 791 790 789 788 788 786 786 785 784 782 781 781 780 779 778 777 776 776 776 776
819 819 819 819 819 818 818 818 818 817 817 816 815 815 814 813 813 812 811 811 810 809 808 808 807 806 805 804 804 803 803 802 802 801 800 800 799 799 798 798 797 797 796 795 794 793 793 792 791 790 789 788 788 787 785 784 783 783 781 780 779 778 777 776 775 774 774 774 773
819 819 819 819 819 818 818 818 817 817 816 816 815 814 813 813 812 812 811 810 809 808 808 807 807 806 805 804 803 803 803 802 801 801 800 800 799 798 798 798 797 796 795 795 794 793 792 792 791 790 789 788 787 786 785 784 783 782 780 779 778 777 775 774 773 774 774 772 772
819 819 819 819 819 818 818 818 817 816 816 815 814 814 813 812 812 811 810 809 808 808 807 807 806 805 804 804 803 803 802 802 801 800 800 799 799 798 798 797 796 795 795 794 793 792 792 791 790 789 788 787 786 784 783 783 782 780 779 778 777 775 774 773 773 773 772 771 771
820 819 819 819 818 818 818 817 817 816 815 815 814 813 813 812 811 811 810 809 808 808 808 807 806 805 804 803 803 802 802 801 801 800 800 799 798 798 797 797 796 795 794 793 792 791 790 790 788 788 786 785 784 783 782 782 780 779 777 776 774 774 773 773 773 772 771 769 769
820 820 819 819 818 818 818 817 816 816 815 814 813 813 812 812 811 811 810 809 809 808 808 807 806 805 804 804 803 803 802 801 801 800 799 799 798 798 797 796 795 794 793 792 791 790 789 788 788 786 785 784 783 782 781 780 779 778 776 775 773 773 772 771 771 770 769 768 768
821 820 820 819 818 818 817 817 816 815 815 814 813 813 813 812 811 811 810 810 809 809 808 808 807 806 805 804 803 803 802 801 800 800 799 798 798 797 796 795 794 793 792 791 790 789 788 787 786 785 783 782 781 780 779 779 778 777 776 774 773 772 771 770 769 768 768 768 769
821 820 820 819 818 818 817 817 816 815 815 814 814 813 813 812 812 811 811 810 810 809 809 808 807 806 805 804 803 802 802 801 800 799 798 798 797 796 795 794 793 792 791 790 789 788 787 786 785 784 782 781 780 779 778 777 777 776 776 775 774 774 773 771 768 768 768 770 771
821 820 819 819 818 818 817 817 816 815 815 814 814 813 813 813 812 812 812 812 811 810 809 808 808 806 805 804 803 802 801 800 799 799 798 798 797 796 795 794 793 792 791 790 789 788 787 785 784 782 781 780 779 778 777 777 776 776 776 776 775 774 773 771 769 768 769 770 771
821 820 819 819 818 818 817 816 816 815 815 814 814 813 813 813 813 813 813 813 812 811 810 809 808 807 806 804 803 802 801 800 799 799 798 798 797 796 795 794 793 792 790 789 788 787 786 785 783 782 780 779 778 777 777 776 776 776 776 775 773 772 772 771 770 770 770 770 771
820 820 819 819 818 817 816 816 816 816 815 815 814 814 814 814 814 814 813 813 812 811 810 809 808 807 806 804 803 802 801 800 799 798 798 798 797 796 795 794 793 792 790 789 788 787 786 785 783 781 780 779 778 777 777 777 776 776 776 775 773 772 772 772 772 772 772 772 772
820 820 819 818 818 817 816 816 816 816 816 816 816 815 815 815 814 814 813 813 812 811 810 810 809 808 806 805 803 802 801 799 799 798 798 798 797 796 795 794 793 792 791 789 788 788 787 785 783 782 781 779 779 778 778 778 777 777 777 775 774 773 773 773 774 773 773 773 772
820 819 819 818 818 817 817 817 817 817 817 816 816 816 816 815 814 814 813 813 812 811 810 809 808 808 807 805 804 802 801 799 798 798 798 797 797 796 795 794 793 792 791 790 789 788 787 786 785 783 782 781 780 779 778 778 778 778 778 777 776 775 775 775 775 775 774 773 773
820 819 818 818 818 818 818 817 818 818 817 817 817 816 816 815 814 813 813 812 812 811 810 809 808 807 806 805 804 802 801 800 799 798 798 797 797 796 795 794 793 792 791 790 790 789 788 787 786 785 783 782 781 780 779 779 779 779 779 779 778 778 777 777 776 775 774 773 773
819 819 819 818 818 818 818 818 818 818 818 818 817 817 816 815 814 813 813 812 812 811 810 809 808 807 806 805 804 802 801 800 800 799 798 798 797 796 795 795 794 793 792 791 790 789 788 788 787 786 784 783 783 781 781 780 780 780 780 780 780 779 778 777 776 775 774 773 773
819 819 819 819 818 818 818 818 818 818 818 818 817 817 816 815 814 813 813 813 812 811 810 809 808 808 806 805 803 803 802 801 801 800 799 799 798 797 796 795 794 793 793 792 790 789 789 788 787 786 785 784 783 782 781 781 780 780 780 781 780 780 779 778 777 775 775 774 773
820 819 819 819 819 819 819 819 819 818 818 818 817 817 816 815 814 813 813 813 812 811 810 809 808 808 806 805 803 803 803 802 801 801 800 799 798 798 797 796 795 794 793 792 791 790 789 788 787 786 785 784 783 782 781 781 780 780 780 780 780 779 779 778 777 776 775 774 773
820 820 819 819 819 819 819 819 819 819 818 818 817 817 816 815 814 814 813 813 812 811 810 809 808 807 806 805 804 803 803 803 802 801 800 800 799 798 797 796 795 794 793 792 791 790 789 788 787 786 785 784 783 782 781 781 781 780 780 780 780 779 778 778 777 775 775 774 773
820 820 820 820 820 820 820 819 819 819 818 818 817 816 816 815 814 814 813 813 812 811 810 809 808 807 806 805 805 804 803 803 802 801 801 800 799 798 797 796 795 794 793 792 791 790 789 788 787 786 785 784 783 782 782 781 781 781 780 780 779 779 778 777 776 775 774 773 772
821 820 820 820 820 820 820 820 819 819 818 818 817 816 815 815 814 813 813 813 812 811 810 809 808 807 806 806 805 804 804 803 803 802 801 800 799 798 797 796 795 794 793 793 791 790 789 788 787 786 785 784 783 783 782 782 781 781 781 780 779 778 778 777 775 774 773 773 772
821 821 820 820 820 820 820 819 819 818 818 817 816 816 815 814 814 813 813 812 812 811 810 809 808 808 807 806 805 805 804 803 803 802 801 800 799 798 797 796 795 794 793 792 791 790 789 788 787 786 786 785 784 783 783 783 782 781 781 780 779 778 777 776 775 774 773 773 772
821 821 821 821 820 820 820 819 819 818 818 817 816 815 815 814 813 813 813 812 811 810 810 809 809 808 807 806 806 805 804 803 803 802 801 800 798 798 797 796 795 794 793 792 791 790 789 788 787 787 786 785 784 784 783 783 782 781 780 779 778 778 777 776 775 774 774 773 773
821 821 821 821 820 820 819 819 818 818 817 816 816 815 814 814 813 813 812 812 811 810 810 809 809 808 807 806 806 805 804 803 802 801 800 799 798 798 797 796 795 794 793 792 791 790 789 788 788 787 786 786 785 784 783 783 782 781 780 779 778 777 777 776 775 774 774 773 772
821 821 821 821 820 820 819 818 818 817 817 816 815 815 814 813 813 813 812 812 811 810 810 809 809 808 807 806 805 805 804 803 802 801 800 799 798 797 796 795 795 794 793 792 791 790 789 788 788 787 787 786 785 784 783 783 782 781 780 779 778 777 776 775 774 774 773 773 772
822 821 821 821 820 819 819 818 818 817 817 816 815 814 814 813 813 812 812 812 811 810 810 809 808 808 807 806 805 804 803 803 802 801 800 799 798 797 796 795 794 793 793 792 791 790 789 788 788 787 787 786 785 784 783 783 782 781 780 779 778 777 776 775 774 773 773 772 772
822 822 821 821 820 819 818 818 818 817 816 816 815 814 813 813 813 812 812 812 811 810 810 809 808 808 807 806 805 804 803 802 801 800 800 799 798 797 796 795 794 793 792 792 791 790 789 788 788 787 787 786 785 784 783 782 781 780 780 779 778 777 776 775 774 773 773 772 771
822 822 821 820 820 819 818 818 817 817 816 815 815 814 813 813 813 812 812 812 811 810 809 808 808 807 806 805 804 803 802 801 801 800 799 798 798 797 796 795 793 793 792 792 791 790 789 788 788 787 786 785 784 783 783 782 781 780 779 778 778 777 776 775 774 774 773 772 771
822 821 821 820 819 819 818 818 817 817 816 815 815 814 813 813 813 812 812 811 810 809 809 808 807 806 805 804 803 803 802 801 800 799 798 798 797 797 796 794 793 792 792 791 791 790 789 788 788 787 786 785 784 783 782 781 780 779 778 778 777 777 776 775 774 773 773 772 771
822 821 820 820 819 819 818 818 817 817 816 816 815 814 813 813 812 812 811 810 810 809 808 807 807 806 805 804 803 802 801 800 799 798 798 798 797 796 795 794 793 792 792 791 790 789 788 788 787 786 785 784 783 782 781 780 780 779 778 778 777 776 776 775 774 773 773 772 771
821 821 820 819 819 819 818 818 818 817 816 816 815 814 813 813 812 811 810 810 809 808 808 807 806 805 804 803 803 802 801 800 799 798 798 797 796 795 794 794 793 792 791 790 789 789 788 787 787 786 785 784 783 782 781 780 779 779 778 777 777 776 775 775 774 773 772 772 771
821 820 820 819 819 819 818 818 818 817 816 815 814 813 813 812 811 811 810 809 808 808 807 806 806 805 804 803 802 801 800 799 799 798 797 796 795 795 794 793 792 791 790 790 789 788 787 787 786 785 784 783 783 782 781 780 779 778 778 777 777 776 775 774 774 773 772 772 771
821 820 820 819 819 819 818 818 818 817 816 815 814 813 813 812 811 810 809 809 808 807 807 806 805 804 803 803 802 801 800 799 798 798 797 796 795 794 793 793 792 791 790 789 788 787 787 786 785 784 783 783 782 782 781 780 779 778 778 777 776 776 775 774 774 773 772 771 771
821 820 820 820 819 819 818 818 817 817 816 815 814 813 813 812 811 810 809 808 808 807 807 806 805 804 803 803 802 801 800 799 798 798 797 795 794 793 793 792 791 790 789 788 787 787 786 785 784 783 783 782 781 781 780 779 778 778 777 777 776 775 774 774 773 773 772 771 770
821 820 820 820 819 819 818 818 817 816 815 815 814 813 812 811 810 809 809 808 808 807 807 806 805 804 803 803 802 801 800 799 798 797 796 795 794 793 792 791 790 789 788 787 787 786 785 784 783 783 782 781 780 779 779 778 778 777 777 776 775 775 774 773 773 772 771 771 770
821 820 820 819 819 818 818 817 817 816 815 814 813 813 812 811 810 810 809 808 808 807 806 806 805 804 803 803 802 801 800 799 798 797 796 795 794 793 792 791 790 789 788 787 786 785 784 783 783 782 781 780 779 779 778 777 777 776 776 775 775 774 773 773 772 771 771 770 769
820 820 820 819 819 818 818 817 816 816 815 814 813 813 812 811 810 810 809 808 808 807 806 805 805 804 803 802 802 801 800 799 798 797 796 795 794 793 792 791 790 789 788 787 786 785 784 783 782 782 781 780 779 778 778 777 776 776 775 775 774 773 773 772 771 771 770 769 768
820 820 819 819 818 818 817 817 816 815 814 814 813 813 812 811 810 810 809 808 808 807 806 805 805 804 803 802 802 801 800 799 798 797 796 795 794 793 792 791 790 789 788 787 786 785 784 783 783 782 781 780 779 778 778 777 776 775 775 774 773 773 772 771 771 770 769 768 768
820 819 819 818 818 817 817 816 815 815 814 813 813 812 811 811 810 809 809 808 808 807 806 805 804 804 803 802 802 801 800 799 798 798 797 796 795 793 793 791 790 789 788 787 786 785 784 783 783 782 781 780 779 778 778 777 776 775 774 773 773 772 771 771 770 769 768 768 767
819 819 818 818 817 817 816 816 815 814 813 813 812 811 811 810 809 809 808 808 807 806 806 805 804 803 803 802 801 801 800 799 798 798 797 796 795 794 793 792 791 790 788 788 786 785 784 783 782 781 780 779 779 778 777 776 775 774 774 773 772 771 770 770 769 768 768 767 766
818 818 818 817 817 816 816 815 814 813 813 812 811 811 810 809 809 808 808 807 807 806 805 805 804 803 803 802 801 801 800 799 798 798 797 796 795 794 793 792 791 790 788 788 786 785 784 783 782 781 780 779 778 778 777 776 775 774 773 773 772 771 770 769 768 767 767 766 765
Wind_Speed
19 20 20 19 19 20 20 21 22 23 25 26 26 26 25 24 23 22 21 21 20 19 19 18 16 16 16 16 17 17 18 19 19 19 19 19 19 20 21 21 22 23 24 24 24 24 24 25 25 25 25 25 25 26 27 27 26 26 27 27 28 29 30 30 30 30 28 27 27
20 21 21 21 21 22 23 24 25 26 26 26 26 25 24 23 21 20 19 19 19 19 19 19 19 19 19 19 20 20 20 20 20 20 21 21 22 22 22 23 23 23 24 24 24 25 25 25 25 24 24 24 24 24 25 25 25 26 27 29 30 30 30 29 28 28 27 28 29
21 22 23 23 24 25 25 25 25 26 26 25 25 24 22 21 20 19 19 19 20 21 22 22 23 23 23 22 22 22 21 22 22 22 23 23 23 23 23 23 23 24 24 25 25 25 25 25 25 25 24 24 24 25 25 26 26 27 28 29 29 28 27 26 25 25 26 28 30
22 23 24 25 25 25 25 25 25 25 24 24 24 22 21 20 20 20 21 22 24 24 25 25 25 25 24 24 23 23 23 23 23 23 22 22 22 22 23 23 24 25 25 25 26 26 27 27 26 25 25 25 25 25 26 26 27 28 29 29 28 26 26 25 25 25 25 26 27
23 24 24 25 25 25 25 24 24 24 24 24 23 22 21 20 20 22 23 25 26 26 26 26 25 25 24 23 23 23 22 22 21 21 21 21 22 22 23 24 24 25 25 26 26 27 28 28 28 27 26 26 25 25 26 28 29 31 32 32 30 29 27 26 26 26 25 25 24
23 24 24 25 25 25 24 24 24 24 24 24 23 21 20 20 21 23 24 25 26 26 25 25 24 23 23 22 21 21 20 20 20 20 20 21 22 22 23 24 24 25 25 26 27 27 28 28 28 27 26 26 26 27 28 29 30 31 32 33 33 32 30 30 29 27 23 20 18
23 23 24 24 24 24 23 23 23 24 24 23 21 20 20 20 22 23 24 24 24 23 23 22 21 21 20 20 19 19 19 19 19 20 20 21 22 22 23 23 24 24 25 25 26 27 27 28 27 26 24 24 24 24 25 25 26 28 29 30 31 30 29 27 24 20 15 12 11
22 22 23 23 23 22 22 22 23 23 22 21 19 19 19 21 22 23 23 22 21 21 20 20 20 19 19 18 18 18 19 19 20 20 21 21 22 22 23 23 23 24 24 25 25 26 26 26 25 24 22 21 21 22 22 23 24 25 26 26 25 22 19 15 12 11 11 11 12
21 21 22 22 22 22 22 22 21 20 20 19 19 19 20 22 22 22 22 22 21 20 20 20 19 19 19 19 19 19 20 20 21 21 21 22 22 22 22 23 23 23 23 24 24 24 24 23 21 19 18 18 19 20 20 20 21 21 21 20 16 12 9 7 8 11 13 14 16
19 20 21 21 22 21 20 19 19 19 19 19 20 21 21 21 21 21 21 20 20 20 20 20 20 20 20 20 19 20 20 20 21 22 22 22 23 23 23 22 22 22 22 22 22 21 21 19 17 15 15 15 15 15 16 16 15 16 15 14 12 12 12 12 11 11 11 12 12
19 20 21 21 20 19 18 18 18 19 20 21 21 21 20 20 20 20 19 19 20 20 20 20 20 20 20 20 20 20 20 21 21 22 22 23 23 22 22 21 20 20 19 19 18 17 15 14 14 14 14 14 13 13 14 13 13 12 12 13 13 14 14 14 13 12 11 9 9
20 20 20 19 18 17 17 17 18 19 21 22 21 21 20 20 20 20 21 21 21 21 20 21 21 21 21 21 21 21 21 21 21 22 22 22 21 20 19 18 17 16 16 16 15 13 13 13 15 16 16 17 16 16 15 15 14 14 14 15 15 15 15 15 15 14 13 11 10
21 20 19 17 16 16 16 17 18 19 21 21 22 22 21 21 21 22 22 23 22 22 23 23 22 22 22 22 22 22 21 21 20 20 20 19 18 16 16 15 15 15 15 15 14 13 14 15 17 17 18 18 18 18 17 17 17 17 17 17 17 17 17 17 16 16 15 14 14
20 19 17 16 16 17 17 17 18 19 21 21 22 22 22 22 22 23 24 24 24 24 24 24 23 22 22 22 22 21 20 19 18 17 16 15 14 14 14 14 14 15 15 15 14 15 15 16 17 18 18 18 19 19 19 20 20 20 20 20 19 19 18 18 18 18 18 19 18
18 17 17 17 17 17 18 18 18 19 20 21 22 22 22 23 23 24 24 24 24 24 23 23 22 21 20 20 20 19 19 18 16 15 14 13 13 13 13 14 14 13 13 13 14 14 15 16 17 18 18 19 19 19 19 20 20 20 20 20 19 18 18 19 20 20 20 21 21
17 16 16 17 17 18 18 19 19 20 21 21 22 22 23 23 23 23 23 23 23 22 21 20 20 19 19 19 19 19 18 17 16 16 15 15 14 14 14 14 14 13 13 13 14 15 15 16 17 18 18 19 19 19 19 20 20 20 20 19 18 18 18 19 20 20 20 21 21
16 16 16 17 17 18 19 19 20 21 21 21 22 22 21 21 21 21 20 20 20 20 20 19 19 19 19 20 20 19 19 18 17 17 17 17 16 16 15 15 15 15 15 15 16 16 17 17 18 18 19 20 20 20 20 20 20 20 20 19 19 19 19 19 20 20 20 20 20
16 16 16 17 17 18 19 20 20 21 21 21 21 20 20 20 19 19 19 19 19 19 19 19 19 20 20 21 21 20 20 19 18 18 18 18 18 18 17 17 17 17 17 18 18 18 18 18 19 19 20 20 21 21 21 21 21 21 21 20 20 20 20 19 19 19 18 18 19
16 16 16 17 17 18 19 19 20 20 20 20 20 19 19 18 18 18 18 18 19 19 20 20 21 21 21 21 21 20 20 19 19 18 18 18 18 19 18 18 18 19 19 19 19 19 19 19 19 19 20 20 21 21 21 21 21 20 20 20 20 19 19 19 18 18 18 17 17
15 16 16 16 17 17 18 18 19 18 18 18 18 18 18 17 17 17 18 18 19 19 20 21 22 22 22 21 21 20 19 19 18 18 18 18 18 19 19 19 19 18 18 19 19 19 19 19 19 19 19 20 20 20 20 20 20 19 19 19 18 18 18 18 18 18 18 18 18
14 15 15 15 16 16 17 17 17 17 17 17 17 17 16 16 17 17 17 18 19 20 20 21 21 21 21 20 20 19 19 19 18 18 18 18 18 18 19 19 19 19 18 19 19 19 19 19 18 18 18 19 19 19 19 18 18 18 18 18 18 18 19 19 19 19 19 19 19
13 13 14 14 15 15 15 15 16 16 16 16 16 15 16 16 16 17 17 18 19 20 20 20 20 20 20 19 19 19 19 18 18 18 18 18 18 18 19 19 20 20 19 19 19 19 19 18 18 17 17 17 17 17 18 18 18 18 19 19 19 20 20 20 20 20 20 20 20
12 12 13 13 13 14 14 14 15 15 15 15 15 15 15 15 16 16 17 18 19 19 20 20 19 19 19 19 19 19 19 18 18 18 18 18 18 19 19 20 21 21 21 20 20 19 18 17 17 16 16 16 16 16 17 17 18 19 20 20 20 20 20 20 20 20 20 20 20
11 12 12 12 13 13 13 14 14 15 15 14 14 14 15 15 15 16 17 17 18 19 20 20 19 19 19 19 18 18 19 19 18 18 18 18 19 19 20 21 21 22 22 21 20 18 17 15 15 15 15 15 15 16 17 18 19 20 21 21 21 21 21 21 21 21 21 21 21
11 11 11 11 12 13 13 14 14 14 14 14 14 14 15 15 15 15 16 17 18 19 19 20 20 19 19 19 18 18 18 18 18 17 17 17 18 18 20 21 21 22 21 21 19 17 15 14 13 13 14 14 15 16 18 19 20 21 22 22 22 22 22 22 22 22 22 23 23
10 11 11 11 12 13 13 13 13 13 13 14 14 14 15 15 15 15 16 16 17 18 19 19 20 19 19 18 18 18 18 17 17 16 16 16 16 16 18 19 20 20 20 19 17 15 13 13 12 13 13 14 15 17 18 20 21 21 22 22 22 22 22 23 24 24 24 24 25
10 11 11 12 12 12 13 13 13 13 13 14 14 15 15 15 15 15 15 16 16 17 18 19 19 19 19 18 18 18 17 17 17 16 15 15 14 15 16 18 18 18 18 17 16 14 13 12 12 12 12 13 15 16 18 19 20 21 21 21 21 21 22 23 24 25 26 26 26
11 11 11 12 12 12 12 12 12 13 13 14 14 15 15 16 16 15 15 15 16 17 18 18 19 19 20 19 19 19 18 18 18 17 16 15 14 14 15 16 17 17 17 16 15 14 13 13 12 12 13 14 15 16 18 19 20 20 20 20 20 20 21 22 24 25 26 27 27
12 12 11 11 12 11 12 12 12 12 13 13 14 14 15 16 16 16 16 16 16 17 18 18 19 20 20 21 21 20 20 19 18 17 15 14 12 12 14 16 16 16 16 16 15 14 14 14 14 14 14 15 16 17 18 19 20 20 20 19 19 19 20 22 23 24 25 25 25
12 12 11 11 11 11 11 11 12 12 13 13 14 15 15 16 17 17 17 17 17 17 18 18 19 20 20 21 21 21 20 19 17 15 13 11 11 12 14 15 15 15 15 15 15 15 15 15 16 16 17 17 17 18 19 19 19 19 19 19 18 18 19 20 22 23 24 24 24
12 11 11 11 11 10 11 11 11 12 13 14 15 15 16 17 17 18 18 18 18 17 17 17 18 19 19 20 20 20 19 17 14 12 11 11 12 14 15 16 16 15 15 16 16 16 16 17 18 18 18 18 18 18 18 18 18 18 18 17 17 17 18 19 20 21 23 23 23
11 11 11 11 10 10 10 11 11 12 13 14 15 16 17 17 18 18 18 18 18 17 17 17 17 17 18 19 19 18 18 16 14 13 13 14 15 16 17 16 16 16 16 16 16 17 17 18 18 18 18 17 17 16 16 16 17 17 17 16 16 16 16 17 18 20 21 22 23
11 10 11 11 10 10 10 11 12 13 14 15 16 17 18 19 19 19 19 18 17 16 16 15 16 17 18 19 19 19 18 18 17 17 17 17 17 17 17 16 16 16 16 17 17 18 18 19 18 18 17 16 15 15 15 16 16 16 16 16 15 15 15 15 16 18 19 21 22
10 10 10 9 10 10 11 11 12 13 14 15 16 17 18 19 20 20 19 17 16 15 15 16 17 19 20 20 20 20 20 19 19 19 18 18 17 17 16 16 16 16 17 18 18 19 19 19 19 18 16 15 14 14 15 15 16 16 16 15 15 14 14 15 15 16 18 19 21
9 9 9 9 10 10 11 12 12 13 14 15 16 17 18 20 20 20 19 17 16 16 17 18 20 21 22 22 21 21 20 19 19 19 18 18 18 17 17 17 17 17 18 18 18 19 19 19 19 18 16 15 15 14 14 15 15 15 15 15 15 14 14 15 15 16 17 19 21
8 8 8 9 10 10 11 12 12 13 14 15 16 17 19 19 20 20 19 18 18 18 19 21 21 22 22 23 22 21 20 19 19 19 19 20 20 19 19 19 18 18 18 18 19 19 18 18 18 17 16 16 15 15 14 14 14 15 15 15 15 15 15 15 16 17 18 19 21
7 7 8 9 9 10 11 11 11 12 13 14 16 17 18 18 19 19 19 19 19 20 20 21 21 22 23 23 22 21 20 20 20 21 21 21 22 22 21 20 19 18 18 18 18 17 16 16 16 16 16 16 15 15 15 15 15 15 15 15 15 15 15 16 17 18 19 20 21
6 7 8 9 9 10 10 10 11 11 12 14 15 16 16 17 17 17 18 18 18 19 19 20 21 21 22 22 22 21 21 21 21 21 22 22 22 22 22 20 19 18 18 18 17 16 16 15 16 16 16 16 16 16 15 15 15 15 15 15 15 16 16 17 18 19 20 20 21
6 7 8 9 10 10 10 9 10 11 12 13 14 14 15 15 16 16 17 17 17 18 18 19 20 21 21 21 21 20 20 20 21 21 21 21 22 22 21 20 19 19 18 18 18 17 17 17 17 17 16 16 15 15 15 15 15 16 16 16 16 17 17 18 19 20 20 21 21
6 7 9 10 10 10 9 9 9 11 13 14 14 14 14 14 15 15 16 16 16 17 17 18 19 20 20 19 19 19 19 20 20 20 21 21 21 21 21 20 19 19 19 19 19 18 18 17 17 16 15 14 14 14 14 15 15 16 16 17 18 19 20 20 20 20 21 21 20
7 9 10 11 10 9 8 9 10 12 13 14 13 13 13 14 14 14 15 15 16 16 17 18 18 18 18 18 18 18 18 19 20 21 21 21 21 21 21 21 20 20 20 20 20 19 17 16 15 13 12 12 12 12 13 14 16 17 18 19 20 20 21 21 21 21 21 20 20
Wind_Direction
26 23 19 14 8 2 357 353 349 346 344 343 342 341 339 336 333 330 327 326 326 326 326 325 323 320 317 315 315 315 315 315 314 314 314 315 316 317 318 318 317 316 314 312 309 307 304 302 300 298 295 291 289 287 286 286 286 284 282 279 276 273 270 267 265 262 259 255 254
21 16 11 7 2 358 354 351 348 345 343 342 341 339 338 337 336 335 335 335 334 333 332 330 328 325 322 319 319 319 319 319 319 320 321 322 322 321 320 318 316 314 312 310 308 306 305 305 304 302 300 298 296 294 293 290 289 287 285 281 278 273 269 264 261 259 257 256 256
12 8 5 2 359 356 354 351 348 345 343 341 340 339 337 336 336 336 337 337 337 336 335 334 331 328 326 324 323 323 323 323 324 325 325 324 322 320 318 315 312 310 309 308 307 307 307 306 306 305 304 303 301 299 296 294 291 288 286 283 280 275 270 265 265 265 264 262 262
5 3 1 359 357 355 353 350 347 344 342 340 338 336 334 333 333 333 334 334 335 336 336 335 333 331 330 329 328 328 328 328 328 327 326 323 320 317 314 312 310 309 309 308 308 309 309 309 308 306 304 302 300 297 295 293 290 288 286 285 285 282 278 274 273 274 274 273 271
360 358 357 355 353 351 349 347 345 342 340 337 335 333 331 330 330 330 331 332 334 335 335 334 334 335 335 335 335 334 334 332 330 328 325 321 318 315 313 312 312 311 311 311 312 313 313 312 309 305 301 298 294 291 289 289 288 287 286 286 286 286 283 279 277 278 280 280 276
356 354 353 351 350 349 347 345 343 340 337 334 331 329 329 328 330 331 333 334 334 334 334 335 337 339 340 340 340 338 335 332 329 326 323 320 318 317 316 315 315 315 316 316 316 315 314 312 309 304 300 297 294 292 291 290 289 288 287 286 285 283 281 278 276 278 280 278 273
353 352 351 350 349 347 345 343 340 337 334 332 330 331 332 335 337 339 340 339 338 337 338 340 343 345 345 344 341 338 335 331 328 326 324 323 321 321 321 321 321 321 320 319 317 314 312 311 308 306 304 303 302 301 301 301 299 298 296 293 291 286 281 277 279 283 285 280 271
350 350 349 349 348 346 343 341 339 338 338 339 341 345 349 351 353 353 352 351 350 350 351 352 353 352 349 347 344 341 338 335 332 330 329 328 327 327 326 325 324 322 320 317 315 313 311 310 309 309 311 312 312 311 310 310 310 311 310 308 305 300 294 289 294 305 309 303 293
349 349 348 347 346 344 342 342 345 350 356 1 5 7 8 7 6 4 3 3 2 2 1 360 357 354 351 348 345 343 342 340 338 336 335 334 333 331 329 327 325 323 320 318 316 315 314 313 314 316 318 318 318 317 315 314 316 319 322 324 326 333 347 1 345 329 320 314 306
350 348 347 346 345 345 348 354 3 10 15 18 19 19 17 14 12 9 7 5 3 1 359 356 352 349 347 346 344 343 343 342 341 339 337 336 334 332 331 329 327 326 324 322 321 320 319 321 325 330 333 334 333 332 330 329 329 330 334 344 352 356 356 355 347 339 333 329 322
350 347 346 346 348 354 3 12 16 19 20 22 21 19 17 15 12 8 4 0 358 354 351 347 345 344 343 343 342 341 340 339 338 337 335 334 333 333 332 332 331 332 333 332 331 331 334 342 351 359 4 6 5 2 359 357 358 358 0 4 6 7 8 7 7 8 8 7 8
349 348 348 351 359 7 14 17 18 18 19 20 19 17 15 13 9 5 0 357 354 350 346 343 342 341 340 340 339 338 337 336 335 335 335 335 336 336 338 342 346 349 351 350 350 353 359 8 17 23 26 27 26 23 19 17 18 19 19 20 23 27 27 24 22 20 17 15 13
349 351 356 3 10 13 15 16 17 19 18 17 17 15 13 10 6 1 357 354 351 347 344 341 340 340 339 338 337 337 337 337 336 336 337 338 343 348 355 2 8 11 13 12 11 12 16 20 25 29 31 32 31 29 27 26 27 27 27 29 32 33 31 27 23 19 14 12 10
352 359 6 11 13 15 16 17 19 19 17 16 15 12 9 5 1 357 354 351 348 345 343 341 341 341 340 339 338 339 340 342 342 342 344 348 357 6 11 13 16 18 19 19 18 19 20 21 25 28 30 31 31 30 29 29 29 28 27 26 26 26 23 19 16 13 10 9 9
358 6 11 13 15 16 17 18 18 17 15 13 11 7 3 360 357 354 351 348 347 345 344 344 344 344 344 345 346 347 349 352 354 356 359 4 8 10 11 10 9 10 11 10 10 12 14 17 19 21 23 24 25 25 25 24 23 21 19 16 14 12 10 7 5 3 2 1 360
5 9 11 14 16 17 17 16 15 14 12 10 7 4 1 358 356 354 352 350 348 347 348 351 351 350 351 354 356 358 360 3 5 6 6 6 6 6 5 2 0 360 359 359 359 1 4 6 9 10 12 13 14 15 15 15 13 12 9 6 4 2 360 358 358 357 356 355 353
10 12 13 14 16 16 16 15 13 11 9 8 6 4 2 360 358 357 356 354 353 353 355 357 357 356 356 358 360 1 2 3 4 4 3 2 1 1 360 358 356 354 353 353 353 354 356 358 359 360 0 2 3 5 6 6 6 5 4 2 360 358 356 355 355 354 353 352 351
14 15 15 15 16 16 16 15 13 11 10 8 7 6 5 4 2 2 1 0 359 357 356 357 358 357 356 356 356 357 358 358 358 358 358 357 357 357 357 356 354 352 351 351 351 353 353 353 354 354 356 357 359 1 2 3 3 2 1 359 357 356 354 354 354 353 353 351 349
16 17 17 18 18 17 17 16 15 14 12 11 9 8 8 8 6 5 4 3 1 358 355 355 354 354 354 353 352 353 353 354 355 355 355 355 355 355 355 355 354 353 352 352 353 354 354 355 355 356 358 359 1 3 4 5 5 4 2 359 357 355 353 353 353 353 352 351 348
17 17 18 18 18 17 17 17 16 15 13 11 10 9 9 8 7 5 3 1 359 356 354 353 352 352 351 351 351 352 353 354 355 355 356 356 356 356 355 355 355 354 353 353 353 354 355 356 357 359 1 2 4 6 6 6 6 4 1 358 355 352 350 349 348 348 348 347 346
17 18 17 17 17 18 18 18 16 14 12 10 9 8 7 6 5 3 0 358 356 355 354 353 352 351 351 352 352 353 354 354 355 357 358 358 358 357 356 356 354 353 352 350 349 350 351 353 355 357 360 2 4 5 6 5 2 360 357 354 351 349 346 344 343 342 341 340 338
16 16 17 17 18 19 18 16 14 11 9 8 7 6 5 3 1 359 357 357 357 357 357 355 353 352 351 352 352 353 353 354 356 358 360 0 360 359 358 356 354 352 350 347 344 344 344 345 348 351 354 358 1 3 3 2 359 356 354 352 350 348 346 344 341 339 336 334 332
16 17 18 20 19 17 14 11 9 7 6 6 6 5 4 2 359 357 356 357 359 360 359 357 354 352 351 351 351 351 351 352 354 358 1 2 1 360 359 357 354 352 349 345 341 338 337 337 339 343 348 354 358 1 1 360 358 355 353 351 349 347 345 343 341 338 336 334 331
18 21 23 21 17 13 9 6 4 5 6 6 7 7 6 3 359 357 356 357 358 359 359 357 354 352 350 350 349 349 348 348 350 354 358 1 1 0 358 357 354 351 348 344 340 336 332 330 332 338 345 352 356 359 359 358 356 354 352 349 347 345 343 341 340 338 336 335 333
26 26 24 18 13 9 5 4 4 6 8 9 10 9 8 5 1 357 355 354 355 355 355 354 353 351 349 348 347 346 345 344 345 347 351 355 358 358 358 356 354 351 347 344 341 336 330 327 330 337 345 351 355 356 356 355 354 353 351 349 347 345 342 341 339 338 336 335 334
32 28 20 13 8 6 5 5 6 8 10 11 11 11 9 7 2 357 353 350 348 348 347 347 347 347 347 345 343 341 340 339 339 340 341 344 349 352 354 354 352 350 348 345 342 338 333 332 335 341 347 350 352 352 352 352 352 352 352 351 349 347 345 342 340 339 338 336 335
30 22 13 6 4 5 6 7 9 11 11 11 10 9 7 5 1 356 351 346 341 339 338 338 339 340 340 339 337 335 334 332 331 330 331 333 337 343 349 352 352 352 351 349 348 346 345 346 347 347 347 347 349 350 351 352 353 353 353 353 352 350 347 344 341 340 338 337 336
18 11 7 4 5 7 9 10 11 11 10 8 7 5 2 360 357 352 347 341 335 331 329 329 330 331 332 332 331 330 328 326 325 323 323 325 329 338 347 353 354 354 354 353 354 355 355 355 352 348 345 345 346 348 351 353 355 355 356 355 354 351 348 345 342 340 339 339 338
9 6 6 7 9 12 13 13 11 9 6 4 1 358 355 352 349 346 342 337 332 328 325 324 325 326 328 328 329 328 326 324 323 322 321 322 330 341 350 353 353 353 351 349 349 351 352 350 347 343 342 342 344 346 349 351 353 355 355 355 354 351 348 344 343 342 341 341 341
7 7 9 12 16 17 16 12 8 4 1 358 355 352 348 345 342 340 337 334 330 327 325 324 324 325 327 329 330 329 328 328 328 327 327 330 339 347 350 349 349 347 343 340 339 340 341 340 339 338 338 339 341 342 344 346 348 351 353 354 353 350 346 343 341 341 342 342 343
10 11 14 17 21 19 14 8 3 359 356 353 351 348 344 341 337 334 332 330 329 328 327 325 325 328 331 334 335 335 336 337 339 341 344 346 346 345 343 343 341 338 333 330 329 330 331 332 333 335 337 338 339 341 341 342 343 346 349 351 351 348 345 341 339 338 338 340 341
14 18 19 17 20 16 8 2 358 355 353 351 349 347 343 339 335 332 330 328 327 327 327 328 330 333 337 339 341 344 346 348 350 350 348 344 340 338 337 337 334 330 326 324 323 324 325 327 331 333 336 339 341 341 340 340 341 343 347 349 349 347 344 340 337 335 334 335 337
20 26 24 19 14 8 1 357 354 352 351 350 349 347 344 340 337 334 331 329 328 328 330 334 338 342 344 344 345 346 346 346 345 343 340 337 335 332 332 331 329 326 323 321 321 321 322 324 326 329 332 336 338 338 337 337 338 341 344 346 347 345 342 338 335 333 332 332 332
24 28 23 15 7 0 356 353 352 351 350 349 349 348 346 344 342 340 338 337 336 338 342 346 348 348 347 344 342 341 340 339 338 338 336 334 332 331 329 329 327 324 322 321 321 320 320 320 320 321 324 327 328 329 330 332 335 339 341 343 343 342 340 336 334 332 330 330 329
28 22 13 5 359 355 352 351 350 349 348 348 349 350 350 349 348 348 349 350 350 352 353 353 352 349 347 344 342 340 339 338 337 337 337 337 336 334 331 329 326 324 323 322 321 320 318 316 315 315 317 318 320 322 324 328 332 335 337 339 339 339 337 335 333 331 330 329 329
26 14 4 358 354 351 349 346 345 345 346 348 351 352 352 351 351 352 354 356 356 355 354 352 350 350 350 350 348 347 346 345 344 344 345 345 344 341 337 334 331 329 327 326 324 322 318 315 314 314 316 319 321 323 325 327 330 332 334 335 336 336 335 333 332 331 330 329 329
20 7 357 352 347 345 342 340 340 342 347 351 352 351 349 348 348 350 352 353 352 351 350 349 350 352 354 355 355 355 354 354 354 354 354 354 353 350 347 343 341 340 339 338 334 329 323 319 318 320 323 326 328 329 329 330 331 331 333 334 334 333 332 331 331 330 330 330 329
10 358 348 342 337 335 333 334 338 343 348 349 347 345 344 343 344 346 347 347 348 348 349 350 353 354 355 355 356 357 359 359 360 360 359 360 0 360 358 356 354 353 353 352 349 343 336 331 330 330 332 333 333 333 333 333 333 334 334 335 334 333 332 331 330 330 330 329 328
357 344 335 329 325 324 325 330 338 343 344 343 341 340 339 341 342 343 344 344 347 349 352 355 357 356 354 352 353 355 358 0 2 3 3 3 5 7 8 7 5 2 0 359 357 353 347 343 339 337 336 335 335 335 335 336 336 337 338 338 337 335 333 331 331 330 329 328 327
342 332 324 320 318 319 324 333 340 342 341 338 337 337 339 341 342 342 343 346 349 352 355 358 357 355 353 353 354 356 359 2 3 4 4 4 5 8 10 11 9 6 4 2 359 354 349 345 342 339 336 335 335 337 338 340 341 342 342 342 340 337 335 332 331 329 327 326 324
332 325 320 319 320 325 334 343 346 344 342 340 339 339 341 342 343 344 346 348 351 354 356 357 356 354 353 355 357 359 2 4 4 3 2 2 2 3 5 7 7 6 5 4 0 355 349 344 342 339 335 334 336 341 345 347 348 348 347 344 342 339 336 333 330 328 326 324 322